[[{"header":{"parameterUnit":"m.s-1","parameterCategory":1,"la1":30.2991,"la2":30.254,"lo1":-89.0895,"lo2":-89.0444,"dy":0.0017,"dx":0.0017,"nx":28,"ny":28,"refTime":"2025-03-05T03:00:00:Z","depth":0,"parameterNumber":2,"parameterNumberName":"U-component_of_WINDS"},"data":[0,0,0,0,0,0,0,0,0,0,0,0,0,0,0,0,0,0,0,0,0,0,0,0,0,0,0,0,0,0,0,0,0,0,0,0,0,0,0,0,0,0,0,0,0,0,0,0,0,0,0,0,0,0,0,0,0,0,1.3735,1.3737,0,1.3853,1.3855,1.3856,1.3847,1.3845,1.3843,1.3841,1.3967,1.3972,1.3977,0,0,0,0,0,0,0,0,0,0,0,0,0,1.3505,1.351,1.3735,1.3737,1.3738,1.3853,1.3855,1.3856,1.3847,1.3845,1.3843,1.3841,1.3965,1.3971,1.3977,0,0,0,0,0,0,0,0,0,0,0,0,0,1.3613,1.3511,1.3735,1.3747,1.375,1.3853,1.3855,1.3857,1.3847,1.3845,1.3842,1.384,1.3963,1.397,1.3978,1.4078,0,0,1.4001,1.4004,0,0,0,0,0,0,0,0,1.3607,1.3621,1.3744,1.3747,1.3749,1.3832,1.382,1.3931,1.3848,1.381,1.3841,1.3838,1.3925,1.3935,1.3963,1.4084,1.4089,1.4001,1.4006,1.4009,1.4011,0,0,0,0,0,0,0,1.3599,1.3616,1.3782,1.3746,1.3749,1.3748,1.376,1.3841,1.3881,1.3814,1.3813,1.3827,1.3926,1.3956,1.3966,1.4091,1.4001,1.4008,1.4013,1.4016,1.4299,1.4302,0,0,0,0,0,0,1.3588,1.361,1.3778,1.3786,1.367,1.3754,1.3768,1.3809,1.388,1.3889,1.3829,1.3826,1.3945,1.3957,1.3971,1.4092,1.4009,1.4016,1.4021,1.4296,1.43,1.4303,0,0,0,0,0,0,1.3583,1.3603,1.3774,1.3698,1.3719,1.3761,1.3807,1.3812,1.3843,1.3892,1.39,1.3853,1.3943,1.396,1.4051,1.4096,1.402,1.4026,1.4293,1.4297,1.4302,1.4335,0,0,0,0,0,0,1.3577,1.3602,1.3639,1.3699,1.3723,1.3851,1.381,1.3817,1.3855,1.3852,1.3916,1.3924,1.3942,1.404,1.4058,1.4105,1.4032,1.4289,1.4295,1.43,1.433,1.434,1.4349,0,0,0,0,0,1.3569,1.3645,1.3641,1.3662,1.3771,1.3854,1.3868,1.3886,1.3859,1.3898,1.3929,1.3922,1.4088,1.4049,1.407,1.412,1.4286,1.4293,1.43,1.4326,1.4338,1.4349,0,0,0,0,0,0,1.3592,1.3653,1.365,1.3747,1.3795,1.3852,1.3901,1.3898,1.3956,1.3951,1.3972,1.3987,1.4078,1.4108,1.4064,1.422,1.4184,1.4195,1.4197,1.4209,1.4218,1.4208,1.4039,0,0,0,0,0,1.3608,1.3669,1.372,1.3801,1.3825,1.3859,1.3896,1.3905,1.3956,1.3977,1.4015,1.4066,1.4129,1.4171,1.4232,1.4335,1.4348,1.4379,1.4389,1.4396,1.4405,1.4461,1.4475,1.4326,1.4326,1.4325,0,0,1.3643,1.3684,1.3721,1.3807,1.3845,1.3908,1.3876,1.3945,1.3992,1.3988,1.4075,1.4105,1.4163,1.426,1.4305,1.4288,1.445,1.4405,1.441,1.4416,1.447,1.4484,1.4496,1.433,1.4329,1.4329,0,0,1.3738,1.3776,1.3847,1.3885,1.3943,1.3965,1.3982,1.4039,1.4058,1.4146,1.4144,1.4201,1.431,1.4351,1.4387,1.4497,1.4492,1.4517,1.4565,1.4619,1.4631,1.4642,1.468,1.4694,1.4526,1.4526,1.4526,0,1.3775,1.3868,1.3884,1.3953,1.3991,1.3988,1.4061,1.4098,1.4173,1.42,1.418,1.4316,1.4355,1.4461,1.4488,1.4517,1.4537,1.4509,1.4628,1.4639,1.4649,1.4686,1.47,1.4528,1.4528,1.4528,1.4528,0,1.391,1.3975,1.4026,1.4096,1.414,1.4211,1.4238,1.4281,1.4287,1.4311,1.44,1.4447,1.4517,1.4543,1.455,1.465,1.4638,1.4623,1.4587,1.4665,1.47,1.4715,1.4532,1.4531,1.453,1.453,0,0,1.4023,1.4101,1.4119,1.4151,1.4214,1.4265,1.4336,1.4403,1.4438,1.4491,1.455,1.4642,1.4628,1.4668,1.468,1.4728,1.4811,1.4707,1.4708,1.4723,1.4923,1.4933,1.4949,1.4808,1.4811,1.4813,1.4918,0,1.4124,1.4247,1.4263,1.4373,1.4433,1.4431,1.4493,1.4539,1.4563,1.4619,1.4647,1.4711,1.4688,1.4712,1.4759,1.4791,1.4851,1.4784,1.4865,1.4867,1.4849,1.4968,1.4979,1.5076,1.4932,1.4934,1.4936,0,1.4258,1.4311,1.4426,1.448,1.4506,1.4561,1.4623,1.4676,1.4728,1.4743,1.4787,1.4793,1.4867,1.4828,1.493,1.4883,1.4918,1.4938,1.4943,1.495,1.4906,1.4978,1.5107,1.5121,1.4958,1.4956,1.4955,0,1.4327,1.4429,1.451,1.4538,1.4603,1.4641,1.467,1.472,1.4759,1.4814,1.4839,1.4903,1.4938,1.4987,1.501,1.498,1.5111,1.5074,1.5125,1.5125,1.5152,1.515,1.5287,1.5176,1.5176,1.5175,1.5175,0,1.4438,1.4508,1.4542,1.4592,1.4671,1.469,1.4768,1.4796,1.484,1.4896,1.4899,1.4952,1.4979,1.5037,1.5055,1.5137,1.5153,1.5167,1.5171,1.5166,1.5164,1.5188,1.5182,1.5179,1.5179,1.5178,1.5177,0,1.4529,1.4555,1.4643,1.4697,1.4712,1.4768,1.4814,1.4863,1.4887,1.4958,1.4976,1.5014,1.5082,1.5109,1.5193,1.5206,1.5299,1.5298,1.528,1.5281,1.533,1.5325,1.5487,1.5509,1.5384,1.5385,1.5386,0,1.4597,1.4651,1.471,1.4746,1.4776,1.4836,1.4875,1.4896,1.4937,1.5,1.5042,1.5109,1.5163,1.5272,1.5307,1.5371,1.5372,1.5424,1.5381,1.5374,1.5371,1.5367,1.5372,1.5432,1.5433,1.5434,1.5435,0,1.4715,1.4725,1.478,1.484,1.4887,1.4935,1.4983,1.5014,1.5042,1.5088,1.5156,1.5198,1.5282,1.5349,1.5414,1.5446,1.5445,1.5448,1.5463,1.5458,1.5445,1.5452,1.5301,1.5444,1.5443,1.5442,1.5442,1.5442,1.4796,1.4843,1.4891,1.4953,1.4991,1.5035,1.5083,1.5112,1.5169,1.5238,1.5247,1.532,1.5371,1.5459,1.5492,1.555,1.5537,1.5559,1.5564,1.5569,1.5572,1.5436,1.5563,1.5562,1.5562,1.5562,1.5562,0,1.4913,1.4944,1.5,1.5066,1.5115,1.5108,1.5161,1.5202,1.5265,1.5312,1.5365,1.5443,1.5508,1.5548,1.5613,1.5652,1.5653,1.5668,1.5665,1.5672,1.5581,1.556,1.5666,1.5666,1.5666,1.5666,1.5666,1.5666,1.498,1.5058,1.5074,1.5172,1.5203,1.5273,1.5303,1.5344,1.5381,1.5467,1.552,1.5545,1.559,1.5658,1.5717,1.5727,1.5751,1.5766,1.5776,1.5689,1.5679,1.5668,1.5649,1.5772,1.5772,1.5862,1.5863,1.5864]},{"header":{"parameterUnit":"m.s-1","parameterCategory":1,"la1":30.2991,"la2":30.254,"lo1":-89.0895,"lo2":-89.0444,"dy":0.0017,"dx":0.0017,"nx":28,"ny":28,"refTime":"2025-03-05T03:00:00:Z","depth":0,"parameterNumber":3,"parameterNumberName":"V-component_of_WINDS"},"data":[0,0,0,0,0,0,0,0,0,0,0,0,0,0,0,0,0,0,0,0,0,0,0,0,0,0,0,0,0,0,0,0,0,0,0,0,0,0,0,0,0,0,0,0,0,0,0,0,0,0,0,0,0,0,0,0,0,0,1.9561,1.9561,0,1.9543,1.9543,1.9543,1.9499,1.9498,1.9497,1.9496,1.9475,1.9476,1.9476,0,0,0,0,0,0,0,0,0,0,0,0,0,1.9553,1.9553,1.9561,1.9561,1.9561,1.9544,1.9543,1.9543,1.9499,1.9498,1.9497,1.9496,1.9475,1.9476,1.9476,0,0,0,0,0,0,0,0,0,0,0,0,0,1.9548,1.9553,1.9561,1.9537,1.9534,1.9544,1.9543,1.9543,1.9499,1.9498,1.9496,1.9495,1.9475,1.9475,1.9476,1.9507,0,0,1.9477,1.9478,0,0,0,0,0,0,0,0,1.9548,1.9548,1.9541,1.9539,1.9536,1.9522,1.9533,1.9531,1.9499,1.9512,1.9496,1.9494,1.9492,1.9491,1.949,1.9506,1.9505,1.9477,1.9478,1.9478,1.9478,0,0,0,0,0,0,0,1.9549,1.9549,1.9554,1.9541,1.9538,1.9525,1.9523,1.9532,1.951,1.9511,1.9508,1.9507,1.949,1.949,1.949,1.9504,1.9477,1.9478,1.9478,1.9478,1.954,1.9541,0,0,0,0,0,0,1.9553,1.9549,1.9555,1.9554,1.9539,1.9527,1.9524,1.9528,1.951,1.9506,1.9508,1.9505,1.949,1.9489,1.9489,1.952,1.9478,1.9478,1.9479,1.9538,1.954,1.9541,0,0,0,0,0,0,1.9553,1.9554,1.9555,1.9551,1.955,1.9528,1.9533,1.9528,1.9528,1.9507,1.9503,1.9512,1.9489,1.9488,1.9502,1.9519,1.9479,1.9479,1.9537,1.9539,1.9541,1.9586,0,0,0,0,0,0,1.9553,1.9554,1.9567,1.9551,1.955,1.957,1.9534,1.9529,1.9529,1.9525,1.951,1.9506,1.9488,1.9501,1.9502,1.9519,1.9479,1.9535,1.9538,1.954,1.9583,1.959,1.9595,0,0,0,0,0,1.9553,1.9581,1.9568,1.9569,1.9566,1.9572,1.9571,1.955,1.9531,1.9542,1.9528,1.9507,1.9518,1.9503,1.9504,1.9521,1.9534,1.9537,1.954,1.958,1.9588,1.9595,0,0,0,0,0,0,1.9599,1.9578,1.9564,1.9588,1.9582,1.9564,1.9578,1.9559,1.9558,1.9554,1.9527,1.9524,1.954,1.9532,1.9517,1.9548,1.9522,1.9525,1.9552,1.956,1.9566,1.9567,1.948,0,0,0,0,0,1.9612,1.962,1.9601,1.9624,1.9621,1.96,1.9602,1.9586,1.9578,1.9576,1.9563,1.9555,1.9556,1.9558,1.9558,1.9582,1.9576,1.9594,1.96,1.9605,1.9608,1.9616,1.9623,1.9551,1.9551,1.9551,0,0,1.9639,1.9629,1.9635,1.9633,1.9626,1.9632,1.9599,1.9608,1.9611,1.9577,1.9588,1.9579,1.9568,1.9586,1.9593,1.958,1.9626,1.9609,1.9613,1.9613,1.962,1.9627,1.9633,1.9553,1.9553,1.9553,0,0,1.9691,1.9685,1.9702,1.9696,1.9686,1.9671,1.9675,1.966,1.9652,1.9664,1.9636,1.964,1.9644,1.9636,1.9633,1.9679,1.9658,1.968,1.9711,1.972,1.9725,1.973,1.9744,1.9749,1.9683,1.9683,1.9683,0,1.9725,1.9735,1.9713,1.9723,1.9721,1.969,1.9705,1.97,1.9691,1.9689,1.9675,1.9676,1.9667,1.9681,1.9692,1.9692,1.9693,1.9681,1.9726,1.9731,1.9735,1.9748,1.9753,1.9686,1.9685,1.9685,1.9685,0,1.9776,1.9783,1.9798,1.9789,1.9789,1.9802,1.978,1.9782,1.9766,1.9752,1.9762,1.975,1.9746,1.9748,1.9733,1.9759,1.975,1.9732,1.9705,1.9745,1.9756,1.9761,1.9689,1.9689,1.9688,1.9687,0,0,1.9857,1.9835,1.984,1.9834,1.982,1.9824,1.9834,1.9831,1.9832,1.9826,1.9832,1.9834,1.9816,1.9812,1.9795,1.9803,1.9836,1.9782,1.9782,1.979,1.9861,1.9874,1.988,1.9822,1.9823,1.9824,1.9861,0,1.9903,1.992,1.9899,1.992,1.9924,1.9893,1.9901,1.9892,1.988,1.988,1.9865,1.9866,1.9843,1.984,1.9847,1.9831,1.9849,1.9828,1.9825,1.9825,1.9827,1.9886,1.99,1.9936,1.9865,1.9866,1.9867,0,1.996,1.9956,1.9977,1.9959,1.996,1.9968,1.9961,1.9963,1.9951,1.9941,1.9935,1.9915,1.9921,1.9896,1.9902,1.9888,1.9885,1.9877,1.9877,1.9875,1.9847,1.9883,1.9947,1.9951,1.9874,1.9873,1.9873,0,2.0014,2.0014,2.0025,2.0022,2.0002,2.0008,1.9999,1.9986,1.9984,1.9978,1.9975,1.997,1.9966,1.9961,1.9938,1.9923,1.9946,1.992,1.9936,1.9936,1.9941,1.9941,2.0003,1.9943,1.9943,1.9943,1.9943,0,2.0067,2.008,2.0049,2.0056,2.0069,2.0043,2.0056,2.0045,2.0033,2.0035,2.0009,2.0011,1.9982,1.9981,1.9963,1.9969,1.9968,1.9958,1.9953,1.9959,1.996,1.9956,1.9952,1.9944,1.9944,1.9944,1.9943,0,2.0128,2.0108,2.0118,2.0098,2.0093,2.0103,2.0085,2.0089,2.0074,2.0077,2.0076,2.0052,2.0049,2.0026,2.0018,2.0005,2.0017,2.0008,2.0021,2.0017,2.0033,2.0031,2.0093,2.0099,2.0037,2.0038,2.0039,0,2.0162,2.0171,2.0152,2.0152,2.0144,2.0145,2.0142,2.0117,2.0115,2.0101,2.0106,2.0101,2.0095,2.0091,2.0071,2.0064,2.0053,2.0076,2.0052,2.0057,2.005,2.0049,2.0048,2.008,2.0081,2.0082,2.0082,0,2.0224,2.0213,2.0211,2.0204,2.0202,2.0196,2.0188,2.0189,2.0161,2.0159,2.0156,2.0151,2.0142,2.0136,2.0125,2.0114,2.0092,2.009,2.0092,2.0098,2.0105,2.0099,2.0032,2.0088,2.0088,2.0087,2.0087,2.0087,2.0271,2.0276,2.0263,2.026,2.0251,2.0244,2.0246,2.0231,2.0227,2.0218,2.0203,2.0201,2.0186,2.0169,2.0159,2.0156,2.0144,2.0148,2.0149,2.015,2.0152,2.0107,2.0154,2.0154,2.0154,2.0153,2.0153,0,2.0329,2.0318,2.0316,2.0305,2.0302,2.0283,2.0273,2.0271,2.027,2.0258,2.0252,2.0247,2.024,2.0219,2.021,2.0211,2.02,2.0209,2.0208,2.0205,2.0165,2.0163,2.0217,2.0217,2.0217,2.0217,2.0217,2.0217,2.0358,2.0366,2.0353,2.0355,2.0343,2.0341,2.0336,2.0328,2.0318,2.0313,2.0308,2.0295,2.0278,2.0267,2.0259,2.0253,2.025,2.0261,2.0251,2.0214,2.0208,2.0202,2.0199,2.0261,2.0261,2.0291,2.0291,2.0291]}]]